Temp_Advection
nan nan nan nan nan nan nan nan nan nan nan nan nan nan nan nan nan nan nan nan nan nan nan nan nan nan nan nan nan nan nan nan nan nan nan nan nan nan nan nan nan nan nan nan nan nan nan nan nan
nan 0 -0 0 0 0 -0 0 -0 0 0 -0 -0 -0 -0 0 0 0 0 0 -0 0 0 0 0 -0 0 0 0 0 0 0 0 0 -0 -0 -0 -0 -0 0 0 0 0 0 -0 -0 -0 -0 nan
nan -0 -0 -0 0 0 -0 0 0 0 -0 -0 -0 0 -0 -0 0 0 0 -0 -0 0 0 0 0 -0 0 0 0 0 0 0 0 0 0 -0 -0 0 -0 -0 -0 0 0 0 -0 -0 0 -0 nan
nan -0 0 0 -0 0 -0 -0 0 -0 0 0 -0 -0 0 0 -0 -0 -0 -0 -0 -0 0 0 0 0 0 0 0 0 0 0 0 0 0 0 -0 -0 0 -0 -0 0 0 0 0 0 0 0 nan
nan -0 0 -0 -0 0 -0 -0 -0 0 0 0 -0 0 0 -0 -0 -0 0 -0 -0 -0 0 0 0 0 0 0 0 0 0 0 0 0 0 0 0 0 0 0 0 0 0 0 0 0 0 0 nan
nan 0 0 -0 0 0 0 0 -0 -0 0 0 -0 -0 -0 -0 -0 -0 0 -0 0 0 0 0 0 0 0 0 -0 -0 0 0 0 0 0 0 0 0 0 0 0 0 0 0 0 0 0 0 nan
nan 0 -0 -0 -0 -0 0 0 -0 -0 -0 -0 -0 -0 0 -0 -0 0 0 0 0 0 0 -0 -0 -0 -0 -0 0 0 0 0 0 0 0 0 0 0 0 0 0 0 0 0 0 0 0 0 nan
nan -0 -0 -0 -0 -0 0 0 0 -0 -0 0 -0 -0 -0 -0 0 0 0 1 1 1 0 0 0 -0 -0 -0 0 0 0 0 0 0 0 0 0 0 0 0 0 0 0 0 0 0 0 0 nan
nan 0 -0 -0 -0 -0 -0 -0 0 0 0 0 0 0 0 -0 -0 -0 -0 -0 -0 -0 0 0 0 0 -0 0 -0 -0 -0 0 0 0 0 0 0 0 0 0 0 0 0 0 0 0 0 0 nan
nan 0 0 -0 -0 -0 0 -0 -0 -0 -0 -0 -0 -0 -0 0 0 -0 -0 -1 -1 -1 -0 -1 -0 -0 -0 -0 -0 -0 -0 -0 0 0 0 0 0 0 0 0 0 0 0 0 0 0 0 0 nan
nan -0 0 -0 0 -0 -0 0 -0 -0 -0 -0 -0 0 0 0 -0 -0 -1 -1 -1 -0 -1 -1 -1 -0 -0 -0 -0 -0 -0 0 0 0 0 0 0 0 0 0 0 0 0 0 0 0 0 0 nan
nan 0 -0 -0 0 -0 -0 -0 -0 -0 -1 0 0 0 -0 -0 -0 -0 -1 0 0 -0 -0 -0 -0 -0 -0 -0 -0 -0 0 0 0 0 0 0 0 0 0 0 0 0 0 0 0 0 0 0 nan
nan -0 -0 -0 0 0 -0 -1 -0 -1 -1 -0 0 0 0 -0 -0 0 0 0 -0 -0 -0 -0 -0 -0 0 0 0 0 0 0 0 0 0 0 0 0 0 0 0 0 0 0 0 0 0 0 nan
nan -0 -0 -0 0 -0 -0 0 0 -2 -0 0 -0 -0 -0 0 1 0 -0 -1 -0 -0 -0 -0 -0 0 0 -0 -0 0 0 0 0 0 0 0 0 0 0 0 0 0 0 0 0 0 0 0 nan
nan -0 -0 0 -0 -0 -0 -0 -0 -0 0 -0 0 -0 -1 -0 0 -1 -1 -0 0 1 1 0 0 0 0 0 0 0 1 1 0 0 0 0 0 0 0 0 0 0 0 0 0 0 0 0 nan
nan 0 -0 0 0 0 -0 -0 0 0 0 0 -0 -0 -0 -1 -1 -0 1 1 1 0 1 1 0 0 0 0 0 1 1 0 0 0 0 0 0 1 0 0 0 0 1 0 0 0 0 0 nan
nan -0 -0 -0 0 -0 -0 -1 -1 1 0 -1 -1 -0 0 -0 -1 -1 -0 0 1 1 0 0 0 0 0 0 1 1 1 0 0 0 0 0 0 1 1 0 0 1 1 1 0 0 0 0 nan
nan -0 -0 -0 -0 -0 -0 -0 -1 1 0 -1 -1 -1 -0 -1 -2 -0 0 0 1 1 1 1 0 0 1 1 1 1 -0 -0 -0 0 0 1 1 1 1 1 1 1 0 0 0 0 0 0 nan
nan 0 -0 -0 0 -0 -0 -0 -1 1 1 -0 -0 -1 -1 -1 -1 0 0 0 1 1 0 1 0 0 0 0 0 -0 -0 0 -0 0 1 1 1 1 1 1 1 0 0 0 0 1 0 0 nan
nan -0 -0 -0 -0 -0 -1 0 0 0 0 -0 -0 -0 -0 -0 -1 0 0 -0 -0 -0 1 1 1 1 -0 -0 0 1 1 1 1 0 0 1 1 1 1 1 1 0 1 0 0 0 0 1 nan
nan -0 -0 -0 -0 0 -0 -0 -0 0 0 -0 -0 -0 0 -0 -1 -1 -0 1 0 -0 -1 -1 1 2 2 1 1 1 1 -0 -1 -0 0 1 1 1 1 1 1 1 0 0 1 0 1 0 nan
nan -0 -0 0 -0 -0 -0 -0 0 -0 0 0 0 -0 0 0 -0 -0 -1 -0 0 1 0 1 2 1 1 1 -0 -0 0 -0 1 1 1 0 0 1 2 1 1 1 1 0 1 1 0 1 nan
nan 0 0 0 0 0 -0 -0 0 0 -0 -0 0 -0 0 -0 -0 -0 -0 -0 -0 0 0 0 0 1 1 1 0 -0 -0 1 2 0 1 1 0 1 1 1 1 1 1 0 1 1 0 0 nan
nan -0 -0 0 0 -0 -0 -0 -0 -0 0 0 -0 0 -0 -0 -0 -0 0 0 0 -0 -0 0 0 0 1 1 1 0 1 1 -0 -0 1 1 1 0 -1 1 2 1 0 0 0 1 1 0 nan
nan -0 0 -0 -0 0 0 0 -0 0 0 0 -0 -0 -0 0 0 0 -0 -0 -0 -0 -0 -0 -0 0 0 0 0 1 1 1 1 1 0 0 0 -0 -1 1 2 1 1 1 0 0 0 0 nan
nan 0 -0 0 0 0 -0 -1 -0 0 0 0 0 -0 1 0 -0 -0 -0 -0 -0 -0 -0 -0 -0 -0 -0 -0 0 1 1 1 1 0 0 0 0 0 0 1 1 1 1 0 -0 1 1 0 nan
nan -0 0 0 -0 -0 -0 -0 -0 0 0 0 0 0 1 0 -0 -0 -0 -0 -0 -0 -0 -0 -0 -0 -0 -0 -0 0 1 0 0 0 1 1 0 -0 -0 1 1 2 1 1 0 1 1 1 nan
nan -0 -0 -0 -0 -0 -0 -0 0 0 -0 0 0 0 0 -0 -0 -0 -1 -1 -1 -1 -0 -0 -0 -0 0 0 -0 0 0 0 0 0 0 1 0 -0 1 1 1 1 1 1 1 1 1 0 nan
nan 0 -0 -0 -0 0 -0 0 0 -0 0 0 0 0 0 -0 -0 -0 -0 -1 -1 -1 -1 -1 -0 -1 -1 0 0 -0 -0 1 0 -0 0 0 1 1 1 1 1 1 1 1 1 1 0 1 nan
nan nan nan nan nan nan nan nan nan nan nan nan nan nan nan nan nan nan nan nan nan nan nan nan nan nan nan nan nan nan nan nan nan nan nan nan nan nan nan nan nan nan nan nan nan nan nan nan nan
Wind_Speed
5 4 4 2 1 1 0 1 2 1 2 3 8 4 4 2 2 1 1 11 33 36 34 30 26 23 20 17 14 14 13 14 14 13 12 12 11 10 10 10 9 8 8 8 8 8 7 7 8
3 3 3 3 2 2 2 2 5 2 4 6 5 1 2 2 3 4 4 17 33 35 34 31 27 24 20 18 15 13 13 13 13 13 13 12 11 10 9 8 8 7 7 6 6 6 5 5 5
2 3 2 3 3 2 2 2 2 1 4 2 3 2 3 3 3 4 5 25 30 33 33 31 27 24 21 17 15 13 12 13 13 13 13 12 11 10 10 9 8 7 6 5 5 4 4 3 3
2 2 5 3 4 1 3 5 2 1 2 3 3 2 2 4 2 2 9 24 27 31 31 29 27 25 22 18 17 14 12 12 12 12 12 11 11 10 10 9 8 7 6 5 4 3 3 2 2
4 3 3 3 1 3 4 7 6 4 2 2 3 1 2 3 3 8 18 17 24 30 30 29 27 24 22 21 18 15 13 12 12 12 12 11 11 10 9 8 8 7 6 5 5 4 3 3 3
3 2 3 2 2 3 6 5 3 6 9 3 4 4 2 4 4 9 19 19 26 27 30 29 26 25 24 20 18 16 14 13 13 12 12 11 10 10 9 8 8 7 6 6 5 5 5 4 4
4 2 2 1 6 4 3 9 3 5 7 8 5 2 2 6 9 12 17 21 26 28 29 29 28 26 23 21 20 18 16 15 14 13 12 11 11 10 9 9 8 7 7 6 5 6 5 4 5
4 3 3 1 4 4 5 11 7 5 6 6 5 4 1 5 14 16 19 21 26 27 29 30 29 27 25 24 22 20 18 17 17 15 14 13 12 11 10 9 8 8 8 7 7 7 7 7 8
4 2 2 3 2 6 6 7 6 4 3 5 6 7 3 1 15 17 21 23 25 28 30 31 31 29 28 27 25 22 21 20 19 18 16 16 14 13 12 11 10 9 9 9 9 9 10 9 10
2 2 6 4 3 4 9 2 8 2 3 7 10 15 12 10 13 19 23 25 25 26 30 31 30 30 29 28 27 26 25 24 24 21 20 19 16 15 13 13 12 11 11 12 11 11 11 11 12
2 3 4 6 9 4 7 8 5 3 3 11 13 19 18 16 15 22 23 24 21 23 26 28 30 30 30 30 29 29 28 28 26 24 23 21 19 18 17 16 15 14 14 14 13 13 13 13 13
2 8 6 4 6 3 8 9 5 7 12 12 10 14 19 21 21 24 27 25 24 25 24 26 28 29 30 29 30 30 30 30 29 27 25 24 23 22 20 19 17 17 16 15 15 15 16 15 14
4 4 4 8 15 18 12 16 10 12 17 14 15 14 18 24 24 25 28 28 27 28 27 27 28 29 29 30 30 30 31 31 30 28 27 26 25 24 22 21 20 19 18 17 17 17 17 16 15
3 6 12 15 19 10 9 6 6 15 13 17 18 15 19 19 26 30 31 32 31 30 29 28 29 28 30 31 31 31 32 32 30 29 29 28 27 27 26 24 23 22 21 20 19 18 17 17 18
4 6 6 4 4 4 4 5 7 14 6 11 15 17 22 25 25 30 30 34 31 32 33 32 30 29 30 31 31 33 33 33 32 31 30 30 29 29 28 28 27 25 23 22 22 21 21 20 21
2 1 3 1 6 3 3 7 10 12 8 14 19 21 22 30 31 27 29 35 38 36 35 33 32 32 32 32 34 35 35 34 33 32 32 32 32 31 31 31 31 28 26 26 26 25 26 25 24
3 3 3 6 4 1 3 14 18 19 15 23 20 20 21 26 32 31 28 29 38 40 38 36 34 34 34 34 36 36 34 34 34 34 34 34 33 33 34 34 33 31 30 30 29 29 29 30 29
1 2 3 8 1 6 15 13 15 23 15 22 21 22 20 22 29 27 27 30 35 41 41 39 38 37 36 36 37 37 36 35 36 36 36 35 35 35 35 36 36 34 34 33 33 32 32 33 33
2 3 9 9 11 4 10 13 18 27 17 17 17 15 16 18 22 24 26 29 34 38 42 43 44 43 41 40 40 41 40 38 38 36 36 35 36 35 36 36 37 37 37 35 35 33 34 35 35
7 10 11 10 7 3 14 17 16 9 8 6 8 7 11 13 13 17 21 24 30 32 35 37 39 44 45 44 42 43 43 42 40 39 37 37 36 35 36 36 37 36 36 36 36 35 37 38 38
8 8 8 9 6 5 8 7 7 3 7 7 4 6 4 6 12 17 24 28 28 33 34 34 34 36 39 44 44 46 46 45 44 44 43 42 40 37 34 34 35 36 37 37 36 37 39 40 42
10 11 14 9 4 3 2 6 5 4 9 6 7 9 7 10 10 12 14 13 22 25 23 30 34 35 36 36 44 48 48 48 47 46 46 44 42 39 35 32 31 35 38 37 38 38 39 39 40
8 5 6 4 4 1 3 3 5 1 3 4 8 10 10 13 17 21 23 22 14 8 12 21 28 31 34 35 37 42 46 48 47 48 47 45 44 42 36 33 32 33 36 38 37 38 39 38 39
4 3 3 2 2 4 10 9 6 6 5 2 5 9 9 13 17 19 21 23 24 23 17 7 14 21 27 31 32 35 38 42 45 45 45 45 44 41 37 36 33 31 34 36 38 38 38 40 41
4 4 1 2 3 7 1 7 10 7 6 5 5 9 11 11 16 18 19 20 19 18 17 15 11 11 14 17 21 26 30 34 36 38 38 38 39 39 35 36 35 33 32 33 34 35 37 40 43
12 9 6 6 5 2 3 7 7 8 12 6 5 5 11 16 18 20 21 18 16 16 15 15 14 14 14 16 18 22 26 28 29 29 29 31 32 31 30 31 32 32 32 31 29 33 34 34 38
7 9 19 4 2 3 5 5 10 8 6 8 7 2 9 12 13 14 13 14 14 15 16 17 18 22 24 23 24 24 25 26 25 25 27 27 27 25 25 25 28 29 31 31 27 32 33 33 36
10 10 5 5 7 10 5 7 9 6 10 10 6 2 7 9 12 13 13 13 13 15 17 19 22 25 28 32 33 30 29 26 26 28 27 28 27 26 25 24 26 26 26 26 27 30 29 32 31
8 9 3 4 4 5 5 7 8 17 8 10 7 7 8 11 13 16 19 20 20 18 19 22 26 29 32 32 33 38 35 33 33 32 31 29 30 30 29 27 25 24 23 23 25 28 28 29 25
11 13 14 6 7 4 5 9 3 9 5 8 9 7 6 8 10 13 16 18 17 18 23 26 24 30 25 28 30 32 38 40 37 36 35 34 32 32 31 29 27 25 22 24 24 25 27 28 30
Wind_Direction
104 64 49 84 180 0 170 239 294 227 205 210 149 181 205 183 196 301 287 171 175 177 177 177 177 172 175 174 169 161 160 158 158 155 157 159 155 151 150 143 141 136 133 123 115 111 116 110 106
116 35 70 96 79 91 40 278 260 271 313 149 145 174 245 319 258 264 234 179 173 178 179 179 180 177 181 182 174 167 164 164 162 160 165 168 163 160 157 152 150 147 141 135 127 130 128 118 106
105 26 66 82 96 61 342 290 335 321 146 138 224 267 304 319 330 280 251 174 173 180 181 182 184 182 186 188 185 180 174 169 168 168 172 173 170 168 165 165 163 157 153 148 141 148 141 133 129
78 45 53 73 77 213 267 325 249 239 229 218 232 260 251 267 309 259 168 168 176 182 185 187 189 189 189 192 195 189 183 176 174 176 181 180 181 176 175 174 172 170 168 166 165 177 174 175 185
57 44 65 82 18 265 252 298 257 218 245 196 196 254 219 214 177 164 165 175 184 186 189 191 193 195 194 197 197 194 190 186 184 185 189 189 191 184 184 184 180 178 177 180 183 188 199 207 227
65 59 63 58 325 277 278 299 271 237 233 231 215 229 220 199 171 177 188 187 186 192 192 195 197 199 200 202 202 203 200 196 195 195 197 198 198 195 192 193 190 184 186 196 191 199 209 224 247
95 61 96 318 327 325 285 332 237 244 233 234 237 228 229 204 174 170 172 180 186 193 196 198 200 203 205 207 208 210 208 208 206 205 205 208 209 205 200 202 197 196 197 200 210 225 226 228 243
108 102 128 242 347 320 310 325 295 249 240 232 212 239 195 201 179 174 178 184 191 196 200 203 204 205 207 210 210 213 214 215 214 213 212 216 218 215 211 212 212 212 212 213 221 233 236 234 239
126 105 149 177 286 312 322 341 328 300 199 207 220 228 217 36 188 184 188 187 193 200 206 207 206 207 209 212 213 214 218 221 221 218 217 222 224 223 221 219 220 224 227 230 235 238 240 240 242
125 163 200 208 239 278 309 295 304 270 249 244 227 241 240 245 212 203 203 199 198 202 205 209 210 211 210 213 215 217 220 223 225 223 224 228 229 230 229 229 229 233 237 241 246 247 246 243 243
163 212 198 251 249 262 304 309 322 275 278 255 254 239 235 234 233 221 217 218 218 210 208 208 210 213 215 216 217 220 223 226 227 227 229 232 233 234 234 235 237 241 242 246 253 253 249 243 242
245 237 238 253 233 300 289 292 275 242 256 295 305 260 247 233 239 234 226 224 220 218 216 212 211 213 216 220 223 226 228 228 229 231 232 235 237 239 240 242 244 245 247 250 253 255 254 249 244
225 265 247 252 279 283 262 256 266 253 264 273 274 264 257 244 248 242 232 230 227 224 221 219 217 216 218 221 226 230 233 234 235 236 236 238 240 243 245 246 248 249 252 255 257 260 256 249 243
236 274 284 284 275 257 235 251 180 262 263 249 250 251 263 256 245 236 231 232 231 231 228 224 225 224 225 225 229 233 236 237 238 239 240 241 244 246 247 249 251 253 254 257 255 257 254 248 245
280 295 309 309 312 249 187 244 215 258 268 252 242 259 259 245 242 241 239 236 234 233 232 229 229 230 229 230 232 235 240 241 242 243 243 244 246 248 251 252 252 253 254 255 254 254 254 250 249
336 12 329 303 335 19 319 285 305 303 277 282 279 272 267 242 238 240 248 243 238 236 236 234 234 234 236 234 236 237 240 244 245 246 247 246 248 250 251 253 254 254 254 254 253 252 253 252 253
22 292 308 315 349 325 15 297 278 291 276 280 285 280 282 243 239 240 245 247 248 246 242 238 238 239 239 241 240 242 244 247 250 251 250 250 250 251 252 254 256 256 255 255 255 253 252 254 256
204 295 271 285 249 324 295 270 282 280 273 272 282 281 281 249 233 235 244 248 251 252 250 247 242 240 240 242 245 246 247 248 249 252 253 254 253 253 253 255 256 256 256 255 255 253 253 255 257
290 260 272 278 276 280 271 292 289 287 283 277 273 261 274 260 251 248 250 256 257 259 259 252 247 241 239 237 240 245 246 248 250 252 254 254 254 253 254 254 256 255 255 256 257 255 254 256 258
267 285 281 282 280 263 309 306 296 309 276 278 292 260 268 269 276 274 265 257 255 255 258 260 255 247 241 240 241 245 250 252 253 255 256 257 257 254 254 253 253 255 256 255 255 254 255 256 256
240 254 263 258 315 267 306 293 328 320 316 312 330 330 352 324 310 294 278 268 258 252 252 255 255 254 246 241 244 245 248 251 254 254 254 254 255 256 254 255 257 256 258 259 259 259 257 257 260
264 215 248 267 275 252 341 297 291 321 316 312 345 3 19 14 10 4 335 291 270 262 246 252 256 256 257 247 246 248 251 253 257 258 259 260 261 261 261 256 262 260 261 264 264 264 264 264 263
243 187 222 242 219 252 200 223 269 290 249 297 349 21 32 31 32 37 35 34 31 345 265 245 253 259 260 258 251 251 252 256 257 260 262 261 262 263 263 263 261 260 260 265 266 266 267 264 263
177 147 66 69 157 229 224 206 263 212 194 267 310 11 22 31 37 38 40 45 45 44 34 339 280 271 268 268 266 263 263 261 262 264 265 264 262 263 264 267 268 263 263 266 268 268 268 266 264
183 106 284 243 217 236 182 191 246 243 216 206 276 344 22 31 31 29 26 30 34 31 28 18 2 334 297 284 279 274 272 269 270 269 271 270 268 266 270 272 272 271 271 271 268 270 268 268 267
201 171 180 222 209 241 149 222 242 240 216 213 250 357 66 64 48 39 30 21 15 9 1 347 331 316 308 293 291 286 277 273 271 270 268 267 267 269 269 270 275 276 275 270 268 272 270 273 275
172 188 230 227 87 253 206 253 281 249 233 227 210 121 99 73 43 24 18 7 359 348 336 323 313 305 296 283 277 283 281 275 270 265 266 267 264 258 258 268 272 272 269 267 264 266 271 271 272
195 151 121 205 215 235 221 238 227 209 221 214 189 146 91 28 21 18 11 0 343 327 314 304 296 290 289 282 277 274 276 273 264 260 262 263 258 249 252 258 264 266 263 256 261 265 265 273 268
182 215 178 165 187 213 250 236 215 218 204 178 159 136 46 23 12 5 358 352 344 329 319 308 299 293 282 279 278 272 269 268 264 259 258 260 258 251 255 258 261 260 260 258 254 261 266 270 269
201 211 185 194 204 236 257 250 223 224 200 169 147 123 66 42 22 5 348 340 333 321 314 309 297 298 291 289 280 275 269 269 267 265 264 265 264 258 261 261 264 267 269 267 267 262 256 271 256
Height
1530 1530 1530 1531 1535 1535 1538 1535 1533 1532 1532 1532 1532 1532 1531 1530 1530 1535 1529 1529 1532 1537 1541 1545 1549 1551 1554 1556 1558 1560 1561 1561 1563 1565 1567 1568 1569 1571 1572 1572 1573 1574 1574 1574 1575 1576 1575 1576 1577
1530 1530 1530 1531 1535 1538 1536 1535 1533 1532 1532 1531 1532 1531 1530 1528 1529 1529 1529 1529 1533 1538 1543 1546 1548 1551 1554 1556 1558 1560 1561 1563 1564 1566 1567 1569 1570 1571 1572 1573 1574 1574 1575 1575 1576 1576 1577 1578 1578
1530 1529 1530 1532 1542 1540 1536 1530 1531 1532 1531 1532 1532 1531 1530 1530 1528 1527 1527 1529 1533 1539 1543 1546 1548 1551 1554 1556 1558 1560 1562 1563 1565 1566 1567 1569 1570 1571 1572 1573 1574 1575 1576 1576 1576 1577 1577 1578 1579
1530 1530 1532 1532 1540 1537 1534 1529 1530 1531 1531 1531 1531 1531 1531 1530 1528 1527 1526 1531 1535 1540 1543 1546 1549 1551 1553 1556 1558 1560 1562 1563 1565 1566 1567 1568 1570 1571 1572 1573 1574 1575 1576 1577 1577 1577 1577 1578 1579
1530 1530 1532 1535 1539 1536 1534 1531 1530 1529 1530 1530 1530 1529 1530 1529 1528 1529 1531 1533 1536 1539 1543 1546 1549 1552 1554 1555 1557 1560 1562 1563 1565 1566 1567 1568 1569 1570 1571 1573 1574 1575 1576 1577 1577 1578 1577 1578 1578
1532 1534 1536 1538 1537 1533 1531 1529 1528 1528 1528 1529 1530 1529 1527 1527 1528 1529 1530 1533 1536 1539 1542 1545 1549 1551 1553 1556 1558 1560 1561 1563 1564 1566 1567 1568 1569 1570 1572 1573 1574 1575 1575 1576 1577 1577 1577 1577 1577
1533 1536 1543 1543 1539 1533 1529 1527 1525 1524 1524 1526 1527 1526 1526 1526 1528 1529 1530 1532 1535 1538 1541 1544 1546 1550 1552 1554 1556 1559 1560 1562 1564 1565 1566 1567 1568 1570 1571 1572 1573 1574 1575 1576 1576 1576 1576 1576 1576
1532 1536 1544 1543 1540 1535 1528 1526 1524 1523 1521 1523 1525 1522 1524 1525 1526 1528 1530 1532 1534 1537 1539 1541 1544 1547 1550 1552 1555 1557 1558 1560 1561 1563 1564 1565 1567 1568 1570 1571 1572 1573 1574 1575 1575 1575 1575 1575 1575
1533 1536 1541 1538 1537 1532 1529 1527 1522 1521 1521 1521 1522 1523 1522 1523 1525 1527 1529 1530 1532 1535 1537 1539 1541 1543 1546 1549 1552 1554 1556 1558 1560 1561 1562 1563 1565 1566 1568 1570 1571 1572 1572 1573 1573 1573 1573 1574 1573
1534 1536 1535 1533 1531 1529 1528 1528 1523 1522 1521 1520 1519 1519 1520 1522 1523 1524 1527 1527 1527 1529 1533 1536 1539 1541 1543 1546 1549 1551 1553 1554 1556 1558 1560 1561 1563 1565 1567 1568 1569 1570 1570 1571 1571 1571 1571 1572 1571
1535 1533 1532 1530 1529 1528 1526 1524 1523 1520 1517 1516 1516 1515 1516 1518 1520 1522 1523 1525 1526 1527 1529 1531 1534 1537 1540 1541 1544 1546 1548 1550 1552 1554 1556 1559 1561 1563 1564 1565 1566 1567 1568 1568 1569 1569 1569 1569 1569
1534 1530 1529 1528 1527 1527 1525 1522 1521 1519 1515 1514 1513 1514 1514 1515 1516 1517 1519 1521 1523 1524 1526 1528 1531 1533 1535 1538 1540 1542 1544 1546 1548 1550 1553 1555 1557 1559 1561 1562 1564 1564 1565 1566 1566 1566 1566 1566 1567
1531 1527 1526 1526 1525 1523 1523 1518 1518 1514 1512 1513 1512 1512 1511 1511 1512 1513 1516 1519 1520 1519 1522 1524 1526 1528 1531 1534 1537 1539 1540 1542 1544 1547 1549 1551 1553 1555 1558 1559 1560 1561 1562 1563 1563 1563 1564 1564 1565
1527 1526 1523 1520 1517 1518 1517 1515 1516 1509 1508 1508 1509 1508 1508 1507 1506 1508 1510 1512 1514 1515 1516 1520 1522 1525 1528 1531 1533 1535 1536 1538 1541 1543 1545 1547 1549 1551 1553 1555 1556 1557 1558 1559 1560 1560 1561 1561 1561
1526 1526 1522 1517 1515 1513 1511 1510 1509 1505 1506 1504 1504 1504 1503 1502 1502 1502 1503 1505 1507 1509 1512 1514 1517 1521 1523 1526 1529 1530 1532 1534 1537 1539 1541 1543 1544 1546 1548 1550 1551 1553 1554 1555 1556 1557 1557 1557 1557
1526 1527 1524 1515 1515 1513 1513 1512 1503 1503 1503 1501 1500 1497 1496 1495 1495 1496 1498 1500 1503 1505 1507 1511 1513 1516 1519 1522 1524 1525 1527 1530 1532 1534 1536 1538 1539 1541 1543 1544 1545 1548 1550 1551 1551 1552 1552 1552 1551
1529 1529 1529 1517 1514 1515 1515 1513 1502 1499 1500 1495 1493 1490 1488 1488 1490 1491 1492 1495 1496 1499 1503 1506 1508 1511 1514 1517 1519 1521 1524 1525 1527 1528 1530 1532 1534 1535 1537 1538 1540 1543 1545 1545 1547 1547 1547 1546 1546
1531 1531 1530 1527 1514 1512 1511 1510 1501 1495 1494 1490 1487 1484 1482 1482 1482 1485 1488 1490 1491 1493 1496 1500 1503 1505 1508 1511 1513 1515 1517 1518 1519 1521 1523 1525 1527 1529 1531 1532 1534 1537 1538 1539 1539 1540 1540 1540 1540
1529 1530 1530 1522 1513 1515 1505 1504 1494 1486 1486 1484 1481 1480 1478 1478 1478 1481 1483 1485 1486 1487 1488 1489 1493 1496 1499 1502 1505 1506 1507 1510 1512 1514 1516 1517 1520 1522 1524 1526 1527 1528 1529 1531 1532 1534 1534 1534 1534
1527 1528 1526 1519 1513 1512 1499 1498 1484 1483 1482 1479 1477 1477 1477 1477 1476 1475 1476 1478 1478 1478 1479 1481 1482 1487 1491 1494 1497 1499 1501 1502 1505 1507 1508 1510 1512 1514 1515 1517 1519 1520 1522 1523 1524 1525 1526 1526 1527
1523 1526 1522 1521 1514 1508 1507 1494 1488 1482 1481 1478 1476 1473 1473 1473 1472 1470 1468 1466 1467 1468 1470 1473 1475 1477 1482 1487 1491 1492 1494 1495 1496 1497 1499 1501 1503 1506 1509 1511 1512 1513 1514 1514 1515 1517 1518 1517 1518
1522 1514 1513 1517 1519 1516 1508 1512 1494 1486 1483 1478 1475 1473 1471 1470 1469 1466 1462 1459 1458 1460 1465 1468 1471 1473 1475 1480 1483 1484 1485 1486 1486 1489 1492 1494 1496 1498 1501 1504 1504 1507 1506 1506 1506 1508 1509 1511 1511
1513 1509 1511 1513 1515 1516 1514 1513 1488 1488 1483 1478 1474 1473 1471 1470 1468 1465 1462 1458 1456 1457 1460 1462 1466 1469 1471 1473 1476 1477 1478 1479 1481 1481 1483 1485 1487 1489 1491 1493 1496 1496 1496 1496 1498 1499 1500 1501 1502
1504 1510 1512 1515 1515 1522 1501 1501 1489 1482 1477 1477 1473 1471 1470 1470 1468 1466 1463 1461 1460 1460 1461 1464 1465 1466 1467 1469 1471 1472 1473 1474 1475 1474 1475 1476 1478 1481 1483 1485 1485 1487 1488 1489 1490 1491 1492 1491 1492
1503 1509 1522 1523 1524 1511 1506 1506 1480 1473 1471 1473 1472 1470 1469 1469 1467 1465 1463 1461 1461 1463 1463 1464 1465 1465 1465 1465 1465 1466 1466 1467 1467 1469 1469 1470 1470 1472 1475 1476 1478 1480 1481 1482 1482 1482 1483 1482 1481
1498 1500 1515 1520 1519 1505 1507 1502 1477 1466 1466 1468 1471 1472 1469 1467 1467 1465 1464 1463 1463 1463 1463 1464 1464 1464 1464 1464 1463 1462 1462 1461 1461 1462 1462 1462 1463 1465 1468 1468 1471 1472 1472 1473 1473 1474 1473 1472 1472
1492 1499 1482 1503 1514 1512 1492 1485 1469 1463 1463 1465 1467 1469 1467 1466 1466 1466 1464 1463 1463 1463 1463 1462 1462 1461 1461 1459 1459 1458 1457 1456 1456 1456 1456 1457 1458 1459 1461 1463 1463 1463 1463 1463 1464 1465 1464 1464 1464
1474 1476 1497 1499 1506 1507 1487 1484 1468 1464 1461 1460 1462 1465 1466 1467 1467 1467 1466 1465 1464 1463 1462 1461 1459 1457 1455 1453 1452 1452 1451 1451 1450 1450 1450 1451 1452 1453 1454 1454 1455 1455 1455 1456 1457 1458 1457 1457 1457
1476 1476 1478 1479 1484 1483 1484 1469 1454 1450 1448 1456 1458 1461 1462 1463 1463 1463 1463 1462 1461 1460 1457 1455 1453 1450 1447 1445 1444 1444 1444 1444 1444 1444 1444 1445 1446 1448 1448 1448 1448 1447 1446 1448 1449 1449 1449 1449 1449
1450 1453 1460 1469 1480 1482 1472 1460 1446 1446 1448 1452 1457 1459 1459 1461 1461 1461 1461 1460 1457 1455 1452 1449 1446 1442 1441 1438 1435 1434 1435 1437 1437 1438 1438 1439 1439 1441 1442 1442 1440 1439 1439 1439 1440 1440 1441 1441 1440